User: anonymous   Login
Location: Unspecified
(0.0000°N, 0.0000°E)
Time: 07:12:58
(UTC+01:00)
Language:

Ariane 42L R/B - Orbit

View from above orbital plane
View from above orbital plane
View from above satellite
View from above satellite

Ground track
Ground track

The orbit data is extracted from the following two-line orbital elements,

1 26299U 00020B   14304.43114546  .00004684  00000-0  13633-2 0   890
2 26299 007.5288 038.3147 6056941 065.0504 255.5461 03.93591050180188
Epoch (UTC): 31 October 2014 10:20:50
Eccentricity: 0.6056941
inclination: 7.5288°
perigee height: 303 km
apogee height: 20830 km
right ascension of ascending node: 38.3147°
argument of perigee: 65.0504°
revolutions per day: 3.93591050
mean anomaly at epoch: 255.5461°
orbit number at epoch: 18018

The dashed part of the orbit path shows where the satellite is in the earth's shadow,  

DLR